When you browse on this site, cookies collect data to enhance your experience and personalize the content and advertising you see.
Visit our Privacy Policy to learn more. By continuing to use the site, you agree to this use of cookies and data.
  • In Österreich
  • Länderverzeichnis
  • Für 7 Tage
  • Wassertemperatur
  • Satellitenkarten
  • Wetterkarte
  • News
  • Widgets
  • user-avatar
    Anmelden

    Stündliche Wetter Semmering

    Heute, 10 Dezember, Montag

    Zeit Temperatur Niederschläge Wind Luftdruck Luftfeuchtigkeit
    00:00 -1°C° 0.1 mm 3 m/S 656 mmHg 84%
    01:00 -1°C° 0 mm 3 m/S 656 mmHg 84%
    02:00 -2°C° 0.1 mm 4 m/S 656 mmHg 83%
    03:00 -2°C° 0.1 mm 4 m/S 657 mmHg 83%
    04:00 -3°C° 0.1 mm 4 m/S 657 mmHg 83%
    05:00 -3°C° 0.1 mm 4 m/S 657 mmHg 81%
    06:00 -3°C° 0.1 mm 4 m/S 658 mmHg 80%
    07:00 -4°C° 0 mm 3 m/S 658 mmHg 80%
    08:00 -3°C° 0 mm 4 m/S 659 mmHg 77%
    09:00 -4°C° 0 mm 5 m/S 659 mmHg 73%
    10:00 -4°C° 0 mm 5 m/S 660 mmHg 70%
    11:00 -4°C° 0 mm 6 m/S 660 mmHg 67%
    12:00 -3°C° 0 mm 6 m/S 660 mmHg 65%
    13:00 -3°C° 0 mm 6 m/S 660 mmHg 63%
    14:00 -4°C° 0 mm 5 m/S 660 mmHg 65%
    15:00 -4°C° 0 mm 5 m/S 660 mmHg 67%
    16:00 -4°C° 0 mm 4 m/S 660 mmHg 70%
    17:00 -4°C° 0 mm 4 m/S 661 mmHg 72%
    18:00 -5°C° 0 mm 4 m/S 661 mmHg 74%
    19:00 -5°C° 0 mm 3 m/S 661 mmHg 76%
    20:00 -5°C° 0 mm 3 m/S 661 mmHg 78%
    21:00 -5°C° 0 mm 3 m/S 660 mmHg 80%
    22:00 -6°C° 0 mm 3 m/S 660 mmHg 81%
    23:00 -6°C° 0.2 mm 3 m/S 660 mmHg 81%

    Morgen, 11 Dezember, Dienstag

    Zeit Temperatur Niederschläge Wind Luftdruck Luftfeuchtigkeit
    00:00 -6°C° 0.2 mm 3 m/S 660 mmHg 81%
    01:00 -6°C° 0.2 mm 3 m/S 660 mmHg 81%
    02:00 -6°C° 0.1 mm 3 m/S 660 mmHg 81%
    03:00 -6°C° 0.1 mm 3 m/S 660 mmHg 82%
    04:00 -6°C° 0.1 mm 3 m/S 660 mmHg 82%
    05:00 -7°C° 0.1 mm 4 m/S 660 mmHg 81%
    06:00 -7°C° 0.1 mm 4 m/S 660 mmHg 80%
    07:00 -7°C° 0.1 mm 4 m/S 660 mmHg 79%
    08:00 -7°C° 0.2 mm 4 m/S 660 mmHg 77%
    09:00 -6°C° 0.2 mm 5 m/S 661 mmHg 74%
    10:00 -5°C° 0.2 mm 5 m/S 661 mmHg 72%
    11:00 -5°C° 0.1 mm 6 m/S 661 mmHg 69%
    12:00 -5°C° 0.1 mm 6 m/S 661 mmHg 67%
    13:00 -4°C° 0.1 mm 6 m/S 661 mmHg 65%
    14:00 -5°C° 0 mm 6 m/S 661 mmHg 67%
    15:00 -5°C° 0 mm 6 m/S 660 mmHg 69%
    16:00 -6°C° 0 mm 5 m/S 660 mmHg 72%
    17:00 -6°C° 0 mm 5 m/S 660 mmHg 73%
    18:00 -6°C° 0 mm 5 m/S 661 mmHg 74%
    19:00 -7°C° 0 mm 5 m/S 661 mmHg 75%
    20:00 -7°C° 0.1 mm 5 m/S 661 mmHg 76%
    21:00 -7°C° 0.1 mm 4 m/S 661 mmHg 77%
    22:00 -7°C° 0.1 mm 4 m/S 661 mmHg 78%
    23:00 -7°C° 0.3 mm 4 m/S 661 mmHg 79%

    übermorgen, 12 Dezember, Mittwoch

    Zeit Temperatur Niederschläge Wind Luftdruck Luftfeuchtigkeit
    00:00 -7°C° 0.3 mm 4 m/S 661 mmHg 81%
    01:00 -6°C° 0.3 mm 3 m/S 661 mmHg 82%
    02:00 -6°C° 0.3 mm 3 m/S 661 mmHg 83%
    03:00 -6°C° 0.3 mm 3 m/S 661 mmHg 84%
    04:00 -6°C° 0.3 mm 3 m/S 661 mmHg 85%
    05:00 -6°C° 0.3 mm 3 m/S 661 mmHg 85%
    06:00 -5°C° 0.3 mm 2 m/S 662 mmHg 86%
    07:00 -6°C° 0.3 mm 2 m/S 662 mmHg 86%
    08:00 -5°C° 0.2 mm 2 m/S 662 mmHg 84%
    09:00 -5°C° 0.2 mm 2 m/S 662 mmHg 82%
    10:00 -5°C° 0.2 mm 3 m/S 663 mmHg 79%
    11:00 -5°C° 0.1 mm 3 m/S 662 mmHg 77%
    12:00 -5°C° 0.1 mm 3 m/S 662 mmHg 74%
    13:00 -4°C° 0.1 mm 3 m/S 662 mmHg 72%
    14:00 -4°C° 0 mm 2 m/S 662 mmHg 75%
    15:00 -5°C° 0 mm 2 m/S 662 mmHg 79%
    16:00 -6°C° 0 mm 2 m/S 661 mmHg 83%
    17:00 -4°C° 0 mm 1 m/S 661 mmHg 84%
    18:00 -6°C° 0 mm 1 m/S 662 mmHg 86%
    19:00 -7°C° 0 mm 1 m/S 662 mmHg 88%
    20:00 -7°C° 0 mm 1 m/S 662 mmHg 89%
    21:00 -7°C° 0 mm 1 m/S 662 mmHg 89%
    22:00 -8°C° 0 mm 1 m/S 662 mmHg 89%
    23:00 -8°C° 0 mm 1 m/S 661 mmHg 89%

    13 Dezember, Donnerstag

    Zeit Temperatur Niederschläge Wind Luftdruck Luftfeuchtigkeit
    00:00 -8°C° 0 mm 1 m/S 661 mmHg 88%
    01:00 -8°C° 0 mm 1 m/S 661 mmHg 88%
    02:00 -8°C° 0 mm 1 m/S 661 mmHg 88%
    03:00 -8°C° 0 mm 1 m/S 661 mmHg 88%
    04:00 -9°C° 0 mm 1 m/S 661 mmHg 88%
    05:00 -9°C° 0 mm 1 m/S 660 mmHg 87%
    06:00 -9°C° 0 mm 1 m/S 660 mmHg 87%
    07:00 -9°C° 0 mm 1 m/S 660 mmHg 87%
    08:00 -8°C° 0 mm 1 m/S 660 mmHg 83%
    09:00 -7°C° 0 mm 1 m/S 661 mmHg 79%
    10:00 -4°C° 0 mm 1 m/S 661 mmHg 76%
    11:00 -4°C° 0 mm 1 m/S 661 mmHg 74%
    12:00 -3°C° 0 mm 1 m/S 661 mmHg 72%
    13:00 -3°C° 0 mm 1 m/S 660 mmHg 70%
    14:00 -3°C° 0 mm 1 m/S 660 mmHg 75%
    15:00 -4°C° 0 mm 1 m/S 660 mmHg 80%
    16:00 -6°C° 0 mm 1 m/S 660 mmHg 85%
    17:00 -7°C° 0 mm 1 m/S 660 mmHg 87%
    18:00 -7°C° 0 mm 1 m/S 660 mmHg 89%
    19:00 -8°C° 0 mm 1 m/S 660 mmHg 91%
    20:00 -8°C° 0 mm 1 m/S 660 mmHg 91%
    21:00 -8°C° 0 mm 1 m/S 660 mmHg 91%
    22:00 -9°C° 0 mm 1 m/S 660 mmHg 91%
    23:00 -9°C° 0 mm 1 m/S 660 mmHg 91%

    14 Dezember, Freitag

    Zeit Temperatur Niederschläge Wind Luftdruck Luftfeuchtigkeit
    00:00 -9°C° 0 mm 1 m/S 660 mmHg 91%
    01:00 -9°C° 0 mm 1 m/S 660 mmHg 91%
    02:00 -9°C° 0 mm 1 m/S 660 mmHg 92%
    03:00 -9°C° 0 mm 1 m/S 661 mmHg 92%
    04:00 -9°C° 0 mm 1 m/S 661 mmHg 92%
    05:00 -9°C° 0 mm 1 m/S 661 mmHg 92%
    06:00 -9°C° 0 mm 1 m/S 661 mmHg 92%
    07:00 -8°C° 0 mm 1 m/S 662 mmHg 92%
    08:00 -7°C° 0 mm 1 m/S 662 mmHg 89%
    09:00 -7°C° 0 mm 1 m/S 663 mmHg 86%
    10:00 -6°C° 0 mm 1 m/S 664 mmHg 83%
    11:00 -6°C° 0 mm 2 m/S 664 mmHg 80%
    12:00 -5°C° 0 mm 2 m/S 664 mmHg 78%
    13:00 -5°C° 0 mm 2 m/S 665 mmHg 75%
    14:00 -3°C° 0 mm 1 m/S 665 mmHg 80%
    15:00 -4°C° 0 mm 1 m/S 665 mmHg 84%
    16:00 -6°C° 0 mm 1 m/S 665 mmHg 88%
    17:00 -6°C° 0 mm 1 m/S 665 mmHg 89%
    18:00 -7°C° 0 mm 1 m/S 666 mmHg 90%
    19:00 -7°C° 0 mm 1 m/S 666 mmHg 91%
    20:00 -7°C° 0 mm 1 m/S 667 mmHg 91%
    21:00 -7°C° 0 mm 0 m/S 667 mmHg 90%
    22:00 -7°C° 0 mm 0 m/S 667 mmHg 90%
    23:00 -7°C° 0 mm 0 m/S 667 mmHg 89%

    15 Dezember, Samstag

    Zeit Temperatur Niederschläge Wind Luftdruck Luftfeuchtigkeit
    00:00 -7°C° 0 mm 0 m/S 668 mmHg 89%
    01:00 -7°C° 0 mm 0 m/S 668 mmHg 88%
    02:00 -7°C° 0 mm 0 m/S 668 mmHg 87%
    03:00 -6°C° 0 mm 0 m/S 668 mmHg 85%
    04:00 -6°C° 0 mm 0 m/S 669 mmHg 84%
    05:00 -6°C° 0 mm 0 m/S 669 mmHg 84%
    06:00 -6°C° 0 mm 0 m/S 669 mmHg 84%
    07:00 -6°C° 0 mm 0 m/S 670 mmHg 84%
    08:00 -5°C° 0 mm 0 m/S 670 mmHg 81%
    09:00 -5°C° 0 mm 0 m/S 670 mmHg 78%
    10:00 -4°C° 0 mm 0 m/S 671 mmHg 75%
    11:00 -3°C° 0 mm 0 m/S 671 mmHg 74%
    12:00 -2°C° 0 mm 0 m/S 671 mmHg 73%
    13:00 -1°C° 0 mm 1 m/S 671 mmHg 72%
    14:00 -2°C° 0 mm 1 m/S 670 mmHg 77%
    15:00 -3°C° 0 mm 1 m/S 670 mmHg 82%
    16:00 -6°C° 0 mm 1 m/S 670 mmHg 88%
    17:00 -6°C° 0 mm 0 m/S 670 mmHg 88%
    18:00 -6°C° 0 mm 0 m/S 670 mmHg 89%
    19:00 -7°C° 0 mm 0 m/S 670 mmHg 90%
    20:00 -7°C° 0 mm 0 m/S 670 mmHg 90%
    21:00 -7°C° 0 mm 0 m/S 670 mmHg 90%
    22:00 -7°C° 0 mm 0 m/S 670 mmHg 90%
    23:00 -7°C° 0 mm 0 m/S 670 mmHg 90%
    Mehr zeigen